,,PA_Meas_PMT16A,,PR_Meas_QMR101_102,,RH_Meas_QMH101,,SR_Meas_QMS101,,TA_Meas_QMH101,,GenWind,,GenWind,
time,status,PA,status,PR,status,RH,status,SR,status,TA,status,DirAvg,status,SpdAvg,
2014-09-09, 07:12:04,VALID,919.525,VALID,0,VALID,93.2725,VALID,58.5554,VALID,19.1359,VALID,151,VALID,0,
2014-09-09, 07:13:04,VALID,919.533,VALID,0,VALID,93.3182,VALID,61.9935,VALID,19.1568,VALID,131,VALID,0,
2014-09-09, 07:14:04,VALID,919.552,VALID,0,VALID,93.4936,VALID,67.5805,VALID,19.1749,VALID,129,VALID,0,
2014-09-09, 07:15:04,VALID,919.56,VALID,0,VALID,93.6994,VALID,70.374,VALID,19.2348,VALID,122,VALID,0,
2014-09-09, 07:16:04,VALID,919.593,VALID,0,VALID,93.6384,VALID,71.126,VALID,19.2543,VALID,122,VALID,0,
2014-09-09, 07:17:04,VALID,919.614,VALID,0,VALID,93.5164,VALID,71.8781,VALID,19.2738,VALID,122,VALID,0,
2014-09-09, 07:18:04,VALID,919.618,VALID,0,VALID,93.3868,VALID,72.8451,VALID,19.2933,VALID,122,VALID,0,
2014-09-09, 07:19:04,VALID,919.653,VALID,0,VALID,93.303,VALID,74.027,VALID,19.3113,VALID,122,VALID,0,
2014-09-09, 07:20:04,VALID,919.646,VALID,0,VALID,93.2572,VALID,74.5642,VALID,19.3518,VALID,122,VALID,0,
2014-09-09, 07:21:04,VALID,919.657,VALID,0,VALID,93.1658,VALID,74.6716,VALID,19.3698,VALID,122,VALID,0,
2014-09-09, 07:22:04,VALID,919.65,VALID,0,VALID,93.0895,VALID,76.0683,VALID,19.4103,VALID,122,VALID,0,
2014-09-09, 07:23:04,VALID,919.694,VALID,0,VALID,93.2191,VALID,79.399,VALID,19.4493,VALID,122,VALID,0,
2014-09-09, 07:24:04,VALID,919.676,VALID,0,VALID,93.0057,VALID,83.2669,VALID,19.4493,VALID,119,VALID,0,
2014-09-09, 07:25:04,VALID,919.671,VALID,0,VALID,93.1658,VALID,89.0687,VALID,19.4673,VALID,119,VALID,0,
2014-09-09, 07:26:04,VALID,919.685,VALID,0,VALID,93.0514,VALID,95.9449,VALID,19.4883,VALID,120,VALID,0,
2014-09-09, 07:27:04,VALID,919.668,VALID,0,VALID,93.2649,VALID,103.896,VALID,19.5468,VALID,120,VALID,0,
2014-09-09, 07:28:04,VALID,919.696,VALID,0,VALID,93.5164,VALID,111.202,VALID,19.5858,VALID,120,VALID,0,
2014-09-09, 07:29:04,VALID,919.687,VALID,0,VALID,93.5164,VALID,115.177,VALID,19.6638,VALID,120,VALID,0,
2014-09-09, 07:30:04,VALID,919.728,VALID,0,VALID,93.5546,VALID,117.218,VALID,19.7223,VALID,120,VALID,0,
2014-09-09, 07:31:04,VALID,919.72,VALID,0,VALID,93.0514,VALID,119.475,VALID,19.7403,VALID,120,VALID,0,
2014-09-09, 07:32:04,VALID,919.741,VALID,0,VALID,93.2725,VALID,119.475,VALID,19.8183,VALID,120,VALID,0,
2014-09-09, 07:33:04,VALID,919.786,VALID,0,VALID,92.8303,VALID,119.045,VALID,19.8378,VALID,120,VALID,0,
2014-09-09, 07:34:04,VALID,919.806,VALID,0,VALID,92.1442,VALID,117.111,VALID,19.8783,VALID,121,VALID,0,
2014-09-09, 07:35:04,VALID,919.804,VALID,0,VALID,91.9003,VALID,112.169,VALID,19.9758,VALID,120,VALID,0,
2014-09-09, 07:36:04,VALID,919.848,VALID,0,VALID,91.6868,VALID,108.086,VALID,20.0523,VALID,120,VALID,0,
2014-09-09, 07:37:04,VALID,919.834,VALID,0,VALID,91.4124,VALID,107.119,VALID,20.1303,VALID,120,VALID,0,
2014-09-09, 07:38:04,VALID,919.872,VALID,0,VALID,91.5267,VALID,110.987,VALID,20.1888,VALID,120,VALID,0,
2014-09-09, 07:39:04,VALID,919.847,VALID,0,VALID,91.2294,VALID,117.003,VALID,20.2473,VALID,120,VALID,0,
2014-09-09, 07:40:04,VALID,919.842,VALID,0,VALID,91.1456,VALID,139.459,VALID,20.3058,VALID,120,VALID,0,
2014-09-09, 07:41:04,VALID,919.841,VALID,0,VALID,90.9931,VALID,167.501,VALID,20.3464,VALID,120,VALID,0,
2014-09-09, 07:42:04,VALID,919.813,VALID,0,VALID,90.8559,VALID,176.096,VALID,20.4244,VALID,120,VALID,0,
2014-09-09, 07:43:04,VALID,919.832,VALID,0,VALID,90.6653,VALID,168.038,VALID,20.5219,VALID,120,VALID,0,
2014-09-09, 07:44:04,VALID,919.849,VALID,0,VALID,89.7505,VALID,208.114,VALID,20.6015,VALID,138,VALID,0,
2014-09-09, 07:45:04,VALID,919.836,VALID,0,VALID,89.133,VALID,245.933,VALID,20.66,VALID,143,VALID,0,
2014-09-09, 07:46:04,VALID,919.848,VALID,0,VALID,89.2473,VALID,145.475,VALID,20.7365,VALID,145,VALID,0,
2014-09-09, 07:47:04,VALID,919.884,VALID,0,VALID,88.8357,VALID,144.293,VALID,20.795,VALID,145,VALID,0,
2014-09-09, 07:48:04,VALID,919.885,VALID,0,VALID,88.8204,VALID,196.832,VALID,20.7755,VALID,145,VALID,0,
2014-09-09, 07:49:04,VALID,919.886,VALID,0,VALID,89.133,VALID,152.889,VALID,20.8145,VALID,145,VALID,0,
2014-09-09, 07:50:04,VALID,919.918,VALID,0,VALID,89.1177,VALID,164.278,VALID,20.8925,VALID,145,VALID,0,
2014-09-09, 07:51:04,VALID,919.938,VALID,0,VALID,88.1419,VALID,244.429,VALID,20.8925,VALID,145,VALID,0,
2014-09-09, 07:52:04,VALID,919.937,VALID,0,VALID,88.4316,VALID,288.479,VALID,20.9511,VALID,147,VALID,0,
2014-09-09, 07:53:04,VALID,919.973,VALID,0,VALID,88.1191,VALID,277.521,VALID,21.0291,VALID,161,VALID,0,
2014-09-09, 07:54:04,VALID,920.007,VALID,0,VALID,88.0047,VALID,252.487,VALID,21.1461,VALID,161,VALID,0,
2014-09-09, 07:55:04,VALID,920.019,VALID,0,VALID,87.4025,VALID,295.033,VALID,21.2827,VALID,161,VALID,0,
2014-09-09, 07:56:04,VALID,920.061,VALID,0,VALID,86.3885,VALID,272.578,VALID,21.3412,VALID,161,VALID,0,
2014-09-09, 07:57:04,VALID,920.043,VALID,0,VALID,85.2679,VALID,180.609,VALID,21.3022,VALID,163,VALID,0,
2014-09-09, 07:58:04,VALID,920.123,VALID,0,VALID,85.3823,VALID,234.866,VALID,21.2226,VALID,162,VALID,0,
2014-09-09, 07:59:04,VALID,920.102,VALID,0,VALID,85.611,VALID,323.613,VALID,21.1836,VALID,161,VALID,0,
2014-09-09, 08:00:04,VALID,920.12,VALID,0,VALID,85.2145,VALID,326.299,VALID,21.164,VALID,161,VALID,0,
2014-09-09, 08:01:04,VALID,920.152,VALID,0,VALID,85.4661,VALID,335.646,VALID,21.2421,VALID,162,VALID,0,
2014-09-09, 08:02:04,VALID,920.16,VALID,0,VALID,85.2298,VALID,342.415,VALID,21.3396,VALID,160,VALID,0,
2014-09-09, 08:03:04,VALID,920.161,VALID,0,VALID,84.3912,VALID,322.216,VALID,21.4746,VALID,160,VALID,0,
2014-09-09, 08:04:04,VALID,920.151,VALID,0,VALID,83.1334,VALID,318.026,VALID,21.6518,VALID,160,VALID,0,
2014-09-09, 08:05:04,VALID,920.169,VALID,0,VALID,81.9593,VALID,355.093,VALID,21.7298,VALID,160,VALID,0,
2014-09-09, 08:06:04,VALID,920.236,VALID,0,VALID,81.6773,VALID,349.721,VALID,21.8274,VALID,162,VALID,0,
2014-09-09, 08:07:04,VALID,920.235,VALID,0,VALID,81.5324,VALID,357.672,VALID,21.8859,VALID,160,VALID,0,
2014-09-09, 08:08:05,VALID,920.235,VALID,0,VALID,81.906,VALID,368.201,VALID,21.9428,VALID,149,VALID,0,
2014-09-09, 08:09:04,VALID,920.249,VALID,0,VALID,81.601,VALID,361.647,VALID,21.9444,VALID,155,VALID,0,
2014-09-09, 08:10:04,VALID,920.256,VALID,0,VALID,81.7306,VALID,354.448,VALID,21.9054,VALID,161,VALID,0,
2014-09-09, 08:11:04,VALID,920.232,VALID,0,VALID,82.432,VALID,353.267,VALID,21.8859,VALID,145,VALID,0,
2014-09-09, 08:12:04,VALID,920.256,VALID,0,VALID,82.2414,VALID,341.448,VALID,21.8842,VALID,162,VALID,0,
2014-09-09, 08:13:04,VALID,920.229,VALID,0,VALID,82.7217,VALID,293.959,VALID,21.9054,VALID,163,VALID,0,
2014-09-09, 08:14:04,VALID,920.217,VALID,0,VALID,83.1181,VALID,334.787,VALID,21.9428,VALID,148,VALID,0,
2014-09-09, 08:15:04,VALID,920.198,VALID,0,VALID,82.7369,VALID,332.315,VALID,22.0403,VALID,158,VALID,0,
2014-09-09, 08:16:04,VALID,920.213,VALID,0,VALID,83.4459,VALID,335.539,VALID,22.1964,VALID,158,VALID,0,
2014-09-09, 08:17:04,VALID,920.217,VALID,0,VALID,81.7078,VALID,333.82,VALID,22.372,VALID,158,VALID,0,
2014-09-09, 08:18:04,VALID,920.193,VALID,0,VALID,80.9836,VALID,334.142,VALID,22.5086,VALID,159,VALID,0,
2014-09-09, 08:19:04,VALID,920.215,VALID,0,VALID,80.3965,VALID,332.315,VALID,22.5689,VALID,159,VALID,0,
2014-09-09, 08:20:04,VALID,920.244,VALID,0,VALID,80.4499,VALID,327.051,VALID,22.5299,VALID,159,VALID,0,
2014-09-09, 08:21:04,VALID,920.24,VALID,0,VALID,81.3266,VALID,327.373,VALID,22.5689,VALID,135,VALID,0,
2014-09-09, 08:22:04,VALID,920.24,VALID,0,VALID,80.4957,VALID,335.324,VALID,22.6062,VALID,136,VALID,0,
2014-09-09, 08:23:04,VALID,920.286,VALID,0,VALID,80.8692,VALID,349.721,VALID,22.6274,VALID,136,VALID,0,
2014-09-09, 08:24:04,VALID,920.297,VALID,0,VALID,80.854,VALID,353.052,VALID,22.7428,VALID,114,VALID,0,
2014-09-09, 08:25:04,VALID,920.308,VALID,0,VALID,80.2441,VALID,359.283,VALID,22.938,VALID,114,VALID,0,
2014-09-09, 08:26:04,VALID,920.37,VALID,0,VALID,78.91,VALID,364.118,VALID,22.9965,VALID,29,VALID,0,
2014-09-09, 08:27:04,VALID,920.394,VALID,0,VALID,78.4907,VALID,374.003,VALID,23.0568,VALID,29,VALID,0,
2014-09-09, 08:28:04,VALID,920.424,VALID,0,VALID,78.0485,VALID,377.118,VALID,23.1722,VALID,29,VALID,0,
2014-09-09, 08:29:04,VALID,920.462,VALID,0,VALID,77.2252,VALID,375.722,VALID,23.3496,VALID,29,VALID,0,
2014-09-09, 08:30:04,VALID,920.489,VALID,0,VALID,77.1718,VALID,373.788,VALID,23.465,VALID,29,VALID,0,
2014-09-09, 08:31:04,VALID,920.501,VALID,0,VALID,77.4844,VALID,365.622,VALID,23.4845,VALID,29,VALID,0,
2014-09-09, 08:32:04,VALID,920.51,VALID,0,VALID,76.5467,VALID,368.738,VALID,23.6016,VALID,29,VALID,0,
2014-09-09, 08:33:04,VALID,920.486,VALID,0,VALID,75.205,VALID,372.713,VALID,23.6211,VALID,29,VALID,0,
2014-09-09, 08:34:04,VALID,920.47,VALID,0,VALID,74.1377,VALID,381.416,VALID,23.5821,VALID,29,VALID,0,
2014-09-09, 08:35:04,VALID,920.44,VALID,0,VALID,74.3893,VALID,379.375,VALID,23.5608,VALID,29,VALID,0,
2014-09-09, 08:36:04,VALID,920.435,VALID,0,VALID,74.3969,VALID,387.97,VALID,23.6602,VALID,29,VALID,0,
2014-09-09, 08:37:04,VALID,920.438,VALID,0,VALID,71.4543,VALID,407.417,VALID,23.795,VALID,6,VALID,0,
2014-09-09, 08:38:04,VALID,920.45,VALID,0,VALID,72.9713,VALID,382.383,VALID,23.7578,VALID,350,VALID,0,
2014-09-09, 08:39:04,VALID,920.455,VALID,0,VALID,71.2256,VALID,391.408,VALID,23.7187,VALID,348,VALID,0,
2014-09-09, 08:40:04,VALID,920.427,VALID,0,VALID,71.8126,VALID,394.631,VALID,23.7755,VALID,349,VALID,0,
2014-09-09, 08:41:04,VALID,920.491,VALID,0,VALID,71.0426,VALID,383.457,VALID,23.8145,VALID,349,VALID,0,
2014-09-09, 08:42:04,VALID,920.457,VALID,0,VALID,70.6233,VALID,395.921,VALID,23.953,VALID,349,VALID,0,
2014-09-09, 08:43:04,VALID,920.462,VALID,0,VALID,68.6412,VALID,397.21,VALID,24.1677,VALID,37,VALID,0,
2014-09-09, 08:44:04,VALID,920.457,VALID,0,VALID,70.0135,VALID,407.847,VALID,24.2049,VALID,37,VALID,0,
2014-09-09, 08:45:04,VALID,920.441,VALID,0,VALID,68.7251,VALID,416.657,VALID,24.0115,VALID,37,VALID,0,
2014-09-09, 08:46:04,VALID,920.418,VALID,0,VALID,70.2879,VALID,430.409,VALID,23.8145,VALID,37,VALID,0,
2014-09-09, 08:47:04,VALID,920.438,VALID,0,VALID,71.2484,VALID,448.889,VALID,23.9121,VALID,308,VALID,0,
2014-09-09, 08:48:04,VALID,920.437,VALID,0,VALID,69.3197,VALID,451.145,VALID,23.8731,VALID,244,VALID,0,
2014-09-09, 08:49:04,VALID,920.401,VALID,0,VALID,71.5991,VALID,457.484,VALID,23.6779,VALID,246,VALID,0,
2014-09-09, 08:50:04,VALID,920.445,VALID,0,VALID,70.4404,VALID,455.873,VALID,23.6974,VALID,245,VALID,0,
2014-09-09, 08:51:04,VALID,920.452,VALID,0,VALID,70.7148,VALID,461.675,VALID,23.6992,VALID,255,VALID,0,
2014-09-09, 08:52:04,VALID,920.438,VALID,0,VALID,71.1036,VALID,459.526,VALID,23.7169,VALID,273,VALID,0,
2014-09-09, 08:53:04,VALID,920.45,VALID,0,VALID,68.7022,VALID,462.104,VALID,23.8145,VALID,278,VALID,0,
2014-09-09, 08:54:04,VALID,920.473,VALID,0,VALID,68.5726,VALID,460.815,VALID,23.834,VALID,278,VALID,0,
2014-09-09, 08:55:04,VALID,920.446,VALID,0,VALID,70.0897,VALID,475.32,VALID,23.9707,VALID,294,VALID,0,
2014-09-09, 08:56:04,VALID,920.472,VALID,0,VALID,68.0542,VALID,474.46,VALID,24.1073,VALID,264,VALID,0,
2014-09-09, 08:57:04,VALID,920.463,VALID,0,VALID,67.6197,VALID,480.477,VALID,24.0488,VALID,250,VALID,0,
2014-09-09, 08:58:04,VALID,920.499,VALID,0,VALID,68.565,VALID,480.047,VALID,23.9707,VALID,291,VALID,0,
2014-09-09, 08:59:04,VALID,920.503,VALID,0,VALID,68.2143,VALID,464.683,VALID,23.8926,VALID,289,VALID,0,
2014-09-09, 09:00:04,VALID,920.504,VALID,0,VALID,67.1013,VALID,467.799,VALID,23.6175,VALID,289,VALID,0,
2014-09-09, 09:01:04,VALID,920.466,VALID,0,VALID,67.4291,VALID,474.353,VALID,23.5608,VALID,293,VALID,0,
2014-09-09, 09:02:04,VALID,920.504,VALID,0,VALID,67.6197,VALID,475.749,VALID,23.5785,VALID,288,VALID,0,
2014-09-09, 09:03:04,VALID,920.498,VALID,0,VALID,67.917,VALID,477.683,VALID,23.7737,VALID,288,VALID,0,
2014-09-09, 09:04:04,VALID,920.528,VALID,0,VALID,67.0251,VALID,484.56,VALID,24.0292,VALID,328,VALID,0.00195313,
2014-09-09, 09:05:04,VALID,920.521,VALID,0,VALID,66.4381,VALID,487.783,VALID,23.9298,VALID,293,VALID,0,
2014-09-09, 09:06:04,VALID,920.503,VALID,0,VALID,66.5067,VALID,502.073,VALID,23.9298,VALID,242,VALID,0,
2014-09-09, 09:07:04,VALID,920.497,VALID,0,VALID,65.2869,VALID,508.197,VALID,23.9298,VALID,256,VALID,0,
2014-09-09, 09:08:04,VALID,920.507,VALID,0,VALID,66.926,VALID,514.428,VALID,23.9103,VALID,256,VALID,0,
2014-09-09, 09:09:04,VALID,920.526,VALID,0,VALID,65.3708,VALID,516.577,VALID,23.9512,VALID,284,VALID,0,
2014-09-09, 09:10:04,VALID,920.493,VALID,0,VALID,65.5919,VALID,516.04,VALID,24.0878,VALID,286,VALID,0.292188,
2014-09-09, 09:11:04,VALID,920.503,VALID,0,VALID,65.3098,VALID,511.527,VALID,24.0097,VALID,299,VALID,0,
2014-09-09, 09:12:04,VALID,920.48,VALID,0,VALID,65.5538,VALID,489.932,VALID,23.9121,VALID,307,VALID,0,
2014-09-09, 09:13:04,VALID,920.48,VALID,0,VALID,67.3757,VALID,495.196,VALID,23.7932,VALID,307,VALID,0,
2014-09-09, 09:14:04,VALID,920.475,VALID,0,VALID,67.1547,VALID,497.453,VALID,23.6761,VALID,303,VALID,0.00351562,
2014-09-09, 09:15:04,VALID,920.459,VALID,0,VALID,66.156,VALID,517.007,VALID,23.6761,VALID,300,VALID,0,
2014-09-09, 09:16:04,VALID,920.458,VALID,0,VALID,70.0058,VALID,520.66,VALID,23.6761,VALID,300,VALID,0,
2014-09-09, 09:17:04,VALID,920.441,VALID,0,VALID,68.2296,VALID,514.643,VALID,23.834,VALID,9,VALID,0,
2014-09-09, 09:18:04,VALID,920.442,VALID,0,VALID,62.8474,VALID,537.206,VALID,24.0079,VALID,338,VALID,0,
2014-09-09, 09:19:04,VALID,920.434,VALID,0,VALID,61.1322,VALID,548.487,VALID,24.1854,VALID,339,VALID,0,
2014-09-09, 09:20:04,VALID,920.424,VALID,0,VALID,59.577,VALID,548.702,VALID,24.3593,VALID,284,VALID,0.0496094,
2014-09-09, 09:21:04,VALID,920.404,VALID,0,VALID,61.7725,VALID,549.347,VALID,24.3983,VALID,13,VALID,0,
2014-09-09, 09:22:04,VALID,920.4,VALID,0,VALID,57.5339,VALID,548.809,VALID,24.6912,VALID,7,VALID,0.3625,
2014-09-09, 09:23:04,VALID,920.425,VALID,0,VALID,55.9406,VALID,553.752,VALID,24.7693,VALID,354,VALID,0.000390625,
2014-09-09, 09:24:04,VALID,920.468,VALID,0,VALID,57.1146,VALID,556.653,VALID,24.8278,VALID,348,VALID,0,
2014-09-09, 09:25:04,VALID,920.496,VALID,0,VALID,57.1604,VALID,559.231,VALID,24.945,VALID,337,VALID,0,
2014-09-09, 09:26:04,VALID,920.499,VALID,0,VALID,56.5048,VALID,560.521,VALID,24.9645,VALID,323,VALID,0,
2014-09-09, 09:27:04,VALID,920.508,VALID,0,VALID,56.9622,VALID,563.421,VALID,25.0621,VALID,323,VALID,0,
2014-09-09, 09:28:04,VALID,920.534,VALID,0,VALID,56.2074,VALID,562.454,VALID,25.1988,VALID,323,VALID,0,
2014-09-09, 09:29:04,VALID,920.522,VALID,0,VALID,56.4971,VALID,561.165,VALID,25.3355,VALID,323,VALID,0,
2014-09-09, 09:30:04,VALID,920.561,VALID,0,VALID,57.2519,VALID,570.19,VALID,25.5698,VALID,323,VALID,0,
2014-09-09, 09:31:04,VALID,920.545,VALID,0,VALID,57.9075,VALID,577.281,VALID,25.8608,VALID,323,VALID,0,
2014-09-09, 09:32:04,VALID,920.564,VALID,0,VALID,57.5111,VALID,582.653,VALID,26.0776,VALID,345,VALID,0,
2014-09-09, 09:33:04,VALID,920.606,VALID,0,VALID,57.3815,VALID,585.339,VALID,26.1362,VALID,323,VALID,0,
2014-09-09, 09:34:04,VALID,920.62,VALID,0,VALID,58.6698,VALID,589.53,VALID,25.9995,VALID,323,VALID,0,
2014-09-09, 09:35:04,VALID,920.628,VALID,0,VALID,58.9443,VALID,598.662,VALID,25.8042,VALID,323,VALID,0,
2014-09-09, 09:36:04,VALID,920.649,VALID,0,VALID,59.6532,VALID,602.1,VALID,25.4117,VALID,323,VALID,0,
2014-09-09, 09:37:04,VALID,920.635,VALID,0,VALID,59.9048,VALID,605.431,VALID,25.2965,VALID,343,VALID,0,
2014-09-09, 09:38:04,VALID,920.628,VALID,0,VALID,62.108,VALID,605.216,VALID,25.2965,VALID,22,VALID,0,
2014-09-09, 09:39:04,VALID,920.648,VALID,0,VALID,60.7358,VALID,603.282,VALID,25.3141,VALID,59,VALID,0.519922,
2014-09-09, 09:40:04,VALID,920.628,VALID,0,VALID,62.2604,VALID,606.935,VALID,25.2164,VALID,69,VALID,0,
2014-09-09, 09:41:04,VALID,920.616,VALID,0,VALID,64.0672,VALID,610.373,VALID,25.1579,VALID,84,VALID,0,
2014-09-09, 09:42:04,VALID,920.606,VALID,0,VALID,62.9313,VALID,611.77,VALID,25.0993,VALID,5,VALID,1.58047,
2014-09-09, 09:43:04,VALID,920.634,VALID,0,VALID,63.7851,VALID,614.671,VALID,25.0798,VALID,20,VALID,0.579297,
2014-09-09, 09:44:04,VALID,920.668,VALID,0,VALID,63.16,VALID,617.787,VALID,25.0798,VALID,37,VALID,0.0105469,
2014-09-09, 09:45:04,VALID,920.658,VALID,0,VALID,63.5259,VALID,622.729,VALID,25.0407,VALID,57,VALID,0.0800781,
2014-09-09, 09:46:04,VALID,920.683,VALID,0,VALID,62.6645,VALID,628.208,VALID,25.1012,VALID,57,VALID,0,
2014-09-09, 09:47:04,VALID,920.643,VALID,0,VALID,62.8779,VALID,631.324,VALID,25.2379,VALID,57,VALID,0,
2014-09-09, 09:48:04,VALID,920.649,VALID,0,VALID,62.4891,VALID,631.969,VALID,25.316,VALID,57,VALID,0,
2014-09-09, 09:49:04,VALID,920.651,VALID,0,VALID,62.8703,VALID,633.473,VALID,25.396,VALID,17,VALID,0,
2014-09-09, 09:50:04,VALID,920.629,VALID,0,VALID,61.0254,VALID,634.977,VALID,25.3746,VALID,10,VALID,0,
2014-09-09, 09:51:04,VALID,920.61,VALID,0,VALID,60.4079,VALID,636.911,VALID,25.1988,VALID,282,VALID,0.0304688,
2014-09-09, 09:52:04,VALID,920.583,VALID,0,VALID,60.3317,VALID,640.457,VALID,25.1598,VALID,316,VALID,0.00195313,
2014-09-09, 09:53:04,VALID,920.581,VALID,0,VALID,60.8882,VALID,644.217,VALID,25.0817,VALID,316,VALID,0.242578,
2014-09-09, 09:54:04,VALID,920.535,VALID,0,VALID,60.8882,VALID,648.085,VALID,24.984,VALID,309,VALID,0,
2014-09-09, 09:55:04,VALID,920.513,VALID,0,VALID,61.2694,VALID,650.556,VALID,24.984,VALID,309,VALID,0,
2014-09-09, 09:56:04,VALID,920.475,VALID,0,VALID,61.1093,VALID,652.598,VALID,25.0426,VALID,55,VALID,0,
2014-09-09, 09:57:04,VALID,920.455,VALID,0,VALID,62.0089,VALID,655.284,VALID,25.1598,VALID,55,VALID,0,
2014-09-09, 09:58:04,VALID,920.478,VALID,0,VALID,63.3811,VALID,658.399,VALID,25.4527,VALID,46,VALID,0,
2014-09-09, 09:59:04,VALID,920.467,VALID,0,VALID,64.0138,VALID,663.127,VALID,25.6675,VALID,7,VALID,0,
2014-09-09, 10:00:04,VALID,920.464,VALID,0,VALID,61.5438,VALID,670.648,VALID,25.8237,VALID,331,VALID,0.0339844,
2014-09-09, 10:01:04,VALID,920.471,VALID,0,VALID,58.2963,VALID,674.73,VALID,25.9604,VALID,5,VALID,0.0761719,
2014-09-09, 10:02:04,VALID,920.472,VALID,0,VALID,56.2989,VALID,677.954,VALID,26.1167,VALID,302,VALID,0,
2014-09-09, 10:03:04,VALID,920.477,VALID,0,VALID,56.4133,VALID,679.028,VALID,25.8433,VALID,296,VALID,0,
2014-09-09, 10:04:04,VALID,920.444,VALID,0,VALID,57.2137,VALID,679.135,VALID,25.6089,VALID,318,VALID,0.271484,
2014-09-09, 10:05:04,VALID,920.496,VALID,0,VALID,57.6102,VALID,676.664,VALID,25.5093,VALID,292,VALID,0,
2014-09-09, 10:06:04,VALID,920.475,VALID,0,VALID,57.938,VALID,677.416,VALID,25.5113,VALID,310,VALID,0.00351562,
2014-09-09, 10:07:04,VALID,920.476,VALID,0,VALID,58.7765,VALID,681.069,VALID,25.4507,VALID,304,VALID,0,
2014-09-09, 10:08:04,VALID,920.51,VALID,0,VALID,60.5071,VALID,687.301,VALID,25.5093,VALID,351,VALID,0.204297,
2014-09-09, 10:09:04,VALID,920.485,VALID,0,VALID,58.9443,VALID,690.632,VALID,25.7827,VALID,10,VALID,0.295312,
2014-09-09, 10:10:04,VALID,920.479,VALID,0,VALID,56.9164,VALID,696.219,VALID,26.1342,VALID,7,VALID,0.0855469,
2014-09-09, 10:11:04,VALID,920.456,VALID,0,VALID,56.703,VALID,703.31,VALID,26.2905,VALID,10,VALID,0,
2014-09-09, 10:12:04,VALID,920.466,VALID,0,VALID,55.2621,VALID,705.029,VALID,26.566,VALID,360,VALID,0,
2014-09-09, 10:13:04,VALID,920.466,VALID,0,VALID,54.3321,VALID,705.673,VALID,26.6812,VALID,297,VALID,0,
2014-09-09, 10:14:04,VALID,920.482,VALID,0,VALID,54.5913,VALID,702.45,VALID,26.7007,VALID,269,VALID,0,
2014-09-09, 10:15:04,VALID,920.483,VALID,0,VALID,52.815,VALID,702.021,VALID,26.4858,VALID,232,VALID,0,
2014-09-09, 10:16:04,VALID,920.49,VALID,0,VALID,55.0411,VALID,700.731,VALID,26.2514,VALID,232,VALID,0,
2014-09-09, 10:17:04,VALID,920.521,VALID,0,VALID,54.7285,VALID,703.417,VALID,26.1167,VALID,232,VALID,0,
2014-09-09, 10:18:04,VALID,920.531,VALID,0,VALID,54.5379,VALID,708.467,VALID,26.1147,VALID,227,VALID,0,
2014-09-09, 10:19:04,VALID,920.572,VALID,0,VALID,55.4299,VALID,713.839,VALID,26.2319,VALID,234,VALID,0,
2014-09-09, 10:20:04,VALID,920.506,VALID,0,VALID,53.2877,VALID,717.814,VALID,26.4292,VALID,288,VALID,0.257031,
2014-09-09, 10:21:04,VALID,920.494,VALID,0,VALID,53.402,VALID,721.575,VALID,26.5054,VALID,5,VALID,0.782422,
2014-09-09, 10:22:04,VALID,920.513,VALID,0,VALID,52.4796,VALID,726.625,VALID,26.5444,VALID,319,VALID,0.220703,
2014-09-09, 10:23:04,VALID,920.558,VALID,0,VALID,53.6155,VALID,730.063,VALID,26.4447,VALID,324,VALID,0,
2014-09-09, 10:24:04,VALID,920.523,VALID,0,VALID,53.6384,VALID,734.79,VALID,26.4468,VALID,301,VALID,0,
2014-09-09, 10:25:04,VALID,920.526,VALID,0,VALID,52.8989,VALID,735.22,VALID,26.564,VALID,312,VALID,0,
2014-09-09, 10:26:04,VALID,920.549,VALID,0,VALID,51.6181,VALID,741.666,VALID,26.6812,VALID,330,VALID,0,
2014-09-09, 10:27:04,VALID,920.541,VALID,0,VALID,50.4518,VALID,744.46,VALID,26.896,VALID,330,VALID,0,
2014-09-09, 10:28:04,VALID,920.53,VALID,0,VALID,51.8926,VALID,745.212,VALID,26.9546,VALID,322,VALID,0.216797,
2014-09-09, 10:29:04,VALID,920.491,VALID,0,VALID,51.641,VALID,748.865,VALID,26.9156,VALID,356,VALID,0,
2014-09-09, 10:30:04,VALID,920.492,VALID,0,VALID,52.3652,VALID,750.047,VALID,26.9937,VALID,296,VALID,0,
2014-09-09, 10:31:04,VALID,920.517,VALID,0,VALID,50.6271,VALID,756.493,VALID,27.0328,VALID,305,VALID,0,
2014-09-09, 10:32:04,VALID,920.476,VALID,0,VALID,51.1836,VALID,758.535,VALID,26.9351,VALID,270,VALID,0,
2014-09-09, 10:33:04,VALID,920.455,VALID,0,VALID,51.4962,VALID,758.642,VALID,26.9135,VALID,251,VALID,0,
2014-09-09, 10:34:04,VALID,920.449,VALID,0,VALID,52.7464,VALID,756.386,VALID,26.8549,VALID,247,VALID,0,
2014-09-09, 10:35:04,VALID,920.427,VALID,0,VALID,51.1989,VALID,757.675,VALID,26.9546,VALID,125,VALID,0,
2014-09-09, 10:36:04,VALID,920.428,VALID,0,VALID,52.1289,VALID,751.873,VALID,27.0132,VALID,125,VALID,0,
2014-09-09, 10:37:04,VALID,920.41,VALID,0,VALID,52.3729,VALID,743.708,VALID,27.2868,VALID,134,VALID,0,
2014-09-09, 10:38:04,VALID,920.414,VALID,0,VALID,50.1697,VALID,743.063,VALID,27.187,VALID,265,VALID,0.0273438,
2014-09-09, 10:39:04,VALID,920.407,VALID,0,VALID,52.4948,VALID,740.699,VALID,27.0698,VALID,291,VALID,0.547656,
2014-09-09, 10:40:04,VALID,920.416,VALID,0,VALID,53.3258,VALID,738.443,VALID,26.9937,INVALID,360,VALID,0,
2014-09-09, 10:41:04,VALID,920.42,VALID,0,VALID,50.9092,VALID,742.311,VALID,26.9917,VALID,346,VALID,0,
2014-09-09, 10:42:04,VALID,920.384,VALID,0,VALID,51.7401,VALID,740.377,VALID,27.0328,VALID,215,VALID,0,
2014-09-09, 10:43:04,VALID,920.391,VALID,0,VALID,52.3119,VALID,738.013,VALID,27.2086,VALID,215,VALID,0,
2014-09-09, 10:44:04,VALID,920.402,VALID,0,VALID,49.7199,VALID,741.881,VALID,27.4235,VALID,330,VALID,0.0949219,
2014-09-09, 10:45:04,VALID,920.359,VALID,0,VALID,48.9347,VALID,744.782,VALID,27.5408,VALID,346,VALID,0,
2014-09-09, 10:46:04,VALID,920.323,VALID,0,VALID,48.4239,VALID,744.675,VALID,27.6559,VALID,13,VALID,0.501172,
2014-09-09, 10:47:04,VALID,920.328,VALID,0,VALID,51.1836,VALID,737.476,VALID,27.5582,VALID,359,VALID,1.38867,
2014-09-09, 10:48:04,VALID,920.355,VALID,0,VALID,48.8356,VALID,743.278,VALID,27.5191,VALID,7,VALID,1.55977,
2014-09-09, 10:49:04,VALID,920.342,VALID,0,VALID,51.237,VALID,743.17,VALID,27.2651,VALID,11,VALID,0.377734,
2014-09-09, 10:50:04,VALID,920.338,VALID,0,VALID,53.3563,VALID,752.518,VALID,27.1284,VALID,7,VALID,0,
2014-09-09, 10:51:04,VALID,920.315,VALID,0,VALID,53.1047,VALID,754.667,VALID,27.3258,VALID,18,VALID,0.385938,
2014-09-09, 10:52:04,VALID,920.322,VALID,0,VALID,51.6181,VALID,763.477,VALID,27.6168,VALID,3,VALID,0,
2014-09-09, 10:53:04,VALID,920.323,VALID,0,VALID,50.2536,VALID,769.601,VALID,27.8513,VALID,261,VALID,0,
2014-09-09, 10:54:04,VALID,920.312,VALID,0,VALID,50.1926,VALID,776.37,VALID,27.7927,VALID,303,VALID,0,
2014-09-09, 10:55:04,VALID,920.313,VALID,0,VALID,50.2917,VALID,796.998,VALID,27.9316,VALID,347,VALID,0.000390625,
2014-09-09, 10:56:04,VALID,920.292,VALID,0,VALID,51.7096,VALID,796.354,VALID,27.8904,VALID,4,VALID,0,